SCP
0 0 0 0 -0 -0 0 0 0 0 0 0 0 0 0 0 0 0 0 0 -0 0 0 0 0 0 0 0 0 0 0 0 0 0 0 0 -0 0 0 0 0 0 0 0
0 0 0 0 -0 0 0 0 0 0 0 0 0 0 0 0 0 0 0 -0 0 0 0 0 0 0 0 0 0 0 0 0 0 0 0 0 -0 0 0 0 0 0 0 0
0 0 0 -0 -0 0 0 0 0 0 0 0 0 0 0 0 0 0 0 -0 -0 -0 0 0 0 0 0 0 0 -0 0 0 0 0 0 0 0 0 0 0 0 0 0 0
0 0 0 -0 -0 0 0 0 0 0 0 0 0 0 0 0 0 0 0 0 -0 -0 -0 0 0 0 0 0 0 -0 0 0 0 0 0 0 0 0 0 0 0 0 0 0
0 0 -0 -0 -0 0 0 0 0 0 0 0 0 0 0 0 0 0 0 0 -0 -0 -0 0 0 0 0 0 0 0 0 -0 -0 0 0 0 0 0 0 0 0 0 0 0
0 0 -0 -0 -0 0 0 0 0 0 0 0 0 0 0 0 0 0 0 -0 -0 -0 -0 -0 -0 -0 0 0 0 -0 0 -0 0 0 0 0 0 0 0 0 0 0 0 0
0 0 -0 -0 0 0 0 0 0 0 0 0 0 0 0 0 0 0 0 -0 0 0 -0 -0 0 0 -0 0 0 -0 -0 0 0 0 0 0 0 0 0 0 0 0 0 0
0 -0 -0 -0 0 0 0 0 0 0 0 0 0 0 0 0 0 0 0 0 0 -0 -0 0 -0 -0 0 0 0 0 0 0 0 0 0 0 0 0 0 0 0 0 0 0
0 0 -0 -0 0 0 0 0 0 0 0 0 0 0 0 0 0 -0 0 0 -0 0 0 0 0 0 0 -0 -0 0 -0 0 0 0 0 0 0 0 0 0 0 0 0 0
0 0 -0 -0 0 0 0 0 0 0 0 0 0 0 0 0 0 -0 0 0 0 0 0 0 0 0 0 0 -0 -0 -0 0 0 0 0 0 0 0 0 0 0 0 0 0
0 0 -0 -0 -0 0 0 0 0 0 0 0 0 0 0 0 -0 -0 0 -0 0 0 0 0 0 0 0 0 0 0 0 0 0 0 0 0 0 0 0 0 0 0 0 0
0 -0 -0 -0 -0 0 0 0 0 0 -0 -0 0 0 0 0 0 -0 -0 -0 -0 0 0 0 0 0 0 0 0 0 0 0 0 0 0 0 0 0 0 0 0 0 0 0
0 0 0 0 0 0 0 0 0 0 0 -0 0 0 0 0 0 0 -0 -0 0 0 0 0 0 0 0 0 0 0 0 0 0 0 0 0 0 0 0 0 0 0 0 0
0 0 0 0 0 0 0 0 0 0 0 0 0 0 0 0 0 0 0 0 0 0 0 0 0 0 -0 0 0 0 -0 0 0 0 0 0 0 0 0 0 0 0 0 0
0 0 0 0 0 0 0 0 0 0 0 0 0 0 0 0 0 0 0 0 0 0 0 0 0 0 0 0 0 -0 0 0 0 0 0 0 0 0 0 0 0 0 0 0
0 0 0 0 0 0 0 0 0 0 0 0 0 0 0 0 0 0 0 0 0 0 0 0 0 0 0 0 0 -0 -0 0 0 0 0 0 0 0 0 0 0 0 0 0
0 0 0 0 0 0 0 0 0 0 0 0 0 0 0 0 0 0 0 0 0 0 0 0 0 0 0 0 0 0 0 0 0 0 0 0 0 0 0 0 0 0 0 0
0 0 0 0 0 0 0 0 0 0 0 0 0 0 0 0 0 0 0 0 0 0 0 0 0 0 0 0 0 0 0 0 0 0 0 0 0 0 0 0 0 0 0 0
0 0 0 0 0 0 0 0 0 0 0 0 0 0 0 0 0 0 0 0 0 0 0 0 0 0 0 0 0 0 0 0 0 0 0 0 0 0 0 0 0 0 0 0
0 0 0 0 0 0 0 0 0 0 0 0 0 0 0 0 0 0 0 0 0 0 0 0 0 0 0 0 0 0 0 0 0 0 0 0 0 0 0 0 0 0 0 0
0 0 0 0 0 0 0 0 0 0 0 0 0 0 0 0 0 0 0 0 0 0 0 0 0 0 0 0 0 0 0 0 0 0 0 0 0 0 0 0 0 0 0 0
0 0 0 0 0 0 0 0 0 0 0 0 0 0 0 0 0 0 0 0 0 0 0 0 0 0 0 0 0 0 0 0 0 0 0 0 0 0 0 0 0 0 0 0
0 0 0 0 0 0 0 0 0 0 0 0 0 0 0 0 0 0 0 0 0 0 0 0 0 0 0 0 0 0 0 0 0 0 0 0 0 0 0 0 0 0 0 0
0 0 0 0 0 0 0 0 0 0 0 0 0 0 0 0 0 0 0 0 0 0 0 0 0 0 0 0 0 0 0 0 0 0 0 0 0 0 0 0 0 0 0 0
0 0 0 0 0 0 0 0 0 0 0 0 0 0 0 0 0 0 0 0 0 0 0 0 0 0 0 0 0 0 0 0 0 0 0 0 0 0 0 0 0 0 0 0
0 0 0 0 0 0 0 0 0 0 0 0 0 0 0 0 0 0 0 0 0 -0 0 0 0 0 0 0 0 0 0 0 0 0 0 0 0 0 0 0 0 0 0 0
0 0 0 0 0 0 0 0 0 0 0 0 0 0 0 0 0 0 0 0 -0 -0 -0 0 0 -0 0 0 0 0 0 0 0 0 0 0 0 0 0 0 0 0 0 0
Wind_Speed_500mb
30 35 36 38 41 42 18 0 5 26 12 7 6 3 8 15 14 17 6 5 12 10 7 6 7 8 9 25 22 14 10 5 7 5 10 10 4 10 8 5 6 3 2 3
28 31 31 33 36 39 17 2 4 17 12 6 5 8 5 5 10 11 12 8 18 18 9 8 5 7 6 28 19 15 12 3 5 4 6 6 7 8 7 6 5 2 4 3
24 24 26 29 31 34 12 3 4 9 16 9 5 8 8 11 17 3 11 6 11 13 5 4 10 13 6 13 14 13 20 2 6 9 7 9 8 12 6 7 4 3 5 6
15 20 23 26 27 26 8 8 3 4 5 7 6 5 9 9 13 10 16 2 21 14 5 11 14 9 9 4 5 5 6 8 7 15 15 11 15 29 22 10 7 8 6 10
11 16 22 27 27 18 18 5 6 7 3 6 4 10 9 8 9 5 8 14 29 20 7 4 10 12 4 6 8 6 1 7 8 6 9 15 7 24 28 27 10 4 2 4
3 16 21 26 25 26 15 8 9 6 6 3 4 2 6 7 12 10 13 15 16 16 7 32 47 34 28 6 11 16 10 6 2 3 4 8 3 21 29 16 10 11 12 10
8 18 18 23 25 31 25 16 9 6 1 2 2 2 4 6 8 6 19 23 9 12 53 43 4 8 17 14 12 22 9 6 3 2 3 3 4 5 20 25 16 10 6 6
17 18 16 20 22 26 27 27 10 5 4 3 3 4 5 18 17 6 10 7 24 34 28 9 7 4 4 4 4 9 11 3 3 3 3 9 3 3 7 15 10 14 13 9
20 17 15 18 19 21 21 24 21 6 10 5 1 2 5 5 7 10 8 26 18 23 2 5 5 3 2 7 14 2 3 5 6 3 2 2 2 7 7 9 3 2 19 16
23 19 15 16 17 18 18 18 21 9 5 4 5 5 2 5 6 2 10 27 21 29 7 6 6 4 2 4 6 7 7 6 5 1 1 5 5 10 2 3 7 8 16 23
23 20 16 15 15 15 13 15 21 17 4 6 0 3 2 3 5 3 16 6 9 12 10 7 5 4 5 4 3 1 2 2 1 1 3 3 10 6 4 5 8 4 14 20
22 20 15 15 14 12 13 12 14 13 6 8 7 10 6 1 3 5 9 1 5 10 5 5 6 3 4 3 4 5 1 5 3 6 6 5 8 3 6 5 9 11 18 16
21 19 11 11 10 9 13 12 15 14 10 11 8 8 10 8 11 15 3 1 3 5 10 6 5 6 2 3 5 5 4 5 2 5 3 6 6 8 9 13 16 17 15 13
25 21 10 6 6 5 11 13 21 15 9 7 2 11 13 14 12 11 5 19 14 10 15 5 5 5 5 4 5 4 7 2 3 6 7 6 3 4 9 12 13 14 13 12
28 22 12 3 4 9 16 15 17 17 4 6 3 6 3 7 16 16 10 14 17 8 4 3 4 10 4 3 1 6 8 7 5 6 5 4 2 7 8 9 11 11 9 10
31 22 12 4 3 13 15 6 5 14 10 4 3 1 3 17 12 11 6 10 11 6 4 9 11 9 5 4 5 9 8 8 11 4 4 5 10 11 10 8 8 7 6 7
33 23 11 10 9 14 9 7 5 10 9 5 4 7 5 20 8 8 6 6 6 9 7 8 9 8 4 5 8 9 4 6 3 5 8 7 12 7 9 8 7 7 6 4
33 24 15 22 23 15 13 10 3 5 8 7 5 6 6 21 9 7 1 6 7 10 9 8 8 6 5 8 12 12 8 4 4 5 4 4 7 10 9 7 6 5 3 4
33 24 31 30 8 6 10 16 12 15 11 8 6 4 6 19 10 8 7 8 5 9 8 9 5 4 9 9 13 5 4 6 5 6 5 6 6 6 7 7 6 7 7 9
34 39 11 10 10 19 19 8 5 7 10 9 6 1 5 12 12 7 7 8 4 4 10 5 6 6 26 17 13 8 5 5 6 6 5 6 8 9 8 7 8 11 13 15
39 15 10 29 29 9 8 6 4 2 5 3 3 5 6 3 3 5 5 6 4 4 5 5 4 3 9 11 6 4 4 3 4 5 7 7 7 9 9 10 11 12 14 15
24 23 36 24 8 7 11 2 1 4 6 6 4 4 7 7 5 6 6 6 5 9 3 3 3 4 25 13 9 7 6 6 7 7 8 9 8 9 9 8 8 8 7 9
39 11 12 10 3 10 9 8 6 3 11 9 3 5 4 4 4 9 5 6 9 5 5 3 2 20 42 29 17 13 12 13 16 13 8 5 2 3 4 3 4 6 8 11
8 13 7 4 3 6 7 8 9 11 16 11 1 2 2 2 2 5 5 7 7 5 2 2 7 37 50 38 25 19 18 14 6 4 4 3 3 4 5 5 7 8 9 11
9 10 8 5 9 9 20 22 18 14 12 8 5 1 3 4 4 5 6 6 5 5 6 4 35 47 50 44 35 25 22 19 9 5 3 2 2 2 3 6 8 9 10 11
7 7 11 14 13 8 13 15 12 18 12 8 8 2 0 6 4 3 10 5 4 5 5 23 34 43 49 43 34 23 22 22 14 8 5 2 1 4 7 8 8 9 10 11
7 6 15 19 13 22 19 20 22 17 9 5 5 6 12 3 4 6 6 8 6 12 25 33 35 37 45 40 28 20 21 23 23 17 8 2 7 7 7 7 9 11 12 12
Wind_Direction_500mb
338 343 346 350 347 350 1 346 49 3 358 47 20 37 328 329 321 351 319 242 335 339 334 211 234 241 219 179 148 161 198 137 137 167 236 219 211 174 157 135 177 71 203 342
336 345 352 354 350 353 359 58 78 25 29 74 0 351 307 326 349 343 358 323 3 335 335 330 312 6 347 178 152 151 176 254 100 88 317 125 204 184 154 95 79 204 95 185
338 353 6 2 357 357 11 27 41 40 61 56 51 345 351 326 350 154 346 288 358 340 315 332 342 19 88 179 165 170 179 161 216 180 198 155 184 159 149 114 115 180 230 287
356 13 22 12 9 9 19 45 87 73 336 5 4 341 355 322 351 356 330 53 11 346 305 341 0 2 109 92 321 23 165 230 196 274 285 232 184 167 168 154 203 162 230 198
3 36 34 30 27 28 42 65 121 113 71 324 347 356 12 335 336 303 336 356 341 335 313 28 312 355 318 147 145 157 206 289 163 272 250 169 177 193 184 196 195 252 262 302
15 63 49 44 41 46 48 72 107 143 3 10 94 271 286 307 331 258 261 332 326 319 356 310 287 268 257 258 155 173 184 242 160 292 356 106 256 192 189 191 178 165 191 219
138 81 61 51 44 51 48 57 100 123 176 124 160 251 288 279 311 247 303 311 302 326 313 314 307 197 237 221 218 194 175 209 196 122 4 214 235 294 188 193 196 193 233 209
128 102 79 61 45 53 45 46 54 109 149 187 213 285 281 307 317 299 289 309 310 314 319 352 11 22 68 5 123 185 216 150 88 126 274 306 69 99 138 181 244 204 195 188
130 115 95 73 54 52 48 47 40 68 134 231 40 342 334 344 318 343 298 334 352 357 298 354 49 61 297 328 349 4 102 83 120 143 141 328 309 319 274 181 308 292 199 189
140 130 111 82 62 51 46 40 40 48 76 106 61 54 342 356 348 275 305 335 346 9 358 57 29 339 288 40 5 328 343 358 92 59 141 310 296 299 291 172 232 324 185 185
146 140 120 93 70 50 45 28 30 38 79 96 97 323 299 357 38 46 320 344 9 350 20 360 12 343 323 328 275 284 218 35 318 191 68 70 355 324 73 271 352 50 121 137
148 145 133 103 89 63 49 48 32 42 79 91 55 60 54 201 172 327 351 62 285 11 337 5 304 315 348 290 329 345 43 177 233 174 225 268 311 292 352 31 87 89 117 128
155 152 139 104 95 81 58 41 54 84 101 99 62 36 332 292 303 315 275 346 64 15 5 310 290 280 129 318 280 303 282 173 202 12 309 299 353 32 56 79 94 92 97 108
161 154 138 109 99 110 48 77 61 61 108 102 114 33 51 40 15 356 289 245 284 309 325 275 277 277 219 244 263 211 235 5 209 267 294 306 287 92 83 80 79 84 91 93
163 155 143 123 63 105 103 112 61 46 83 150 150 95 46 8 342 331 272 249 256 293 311 260 260 304 292 249 44 258 192 201 157 223 263 177 252 150 131 123 100 90 90 86
162 155 147 143 76 103 129 118 28 17 56 105 87 65 37 3 10 357 332 228 227 233 258 255 267 267 280 265 271 261 238 255 256 274 322 205 148 146 143 133 107 93 77 71
160 152 159 158 125 104 87 98 79 7 84 84 19 353 1 0 13 345 44 145 183 212 243 247 259 277 253 254 252 244 274 331 262 221 152 136 162 172 170 163 146 141 127 102
159 152 171 138 133 100 80 88 65 38 76 65 81 292 1 10 345 342 253 153 205 226 252 258 247 253 231 254 251 265 260 246 163 161 189 184 170 167 171 179 181 199 243 283
155 158 141 132 126 102 100 104 86 64 61 95 62 58 285 349 347 306 271 206 228 208 220 235 202 201 234 250 278 272 238 241 205 176 154 146 162 182 205 219 237 260 280 292
153 146 139 117 119 126 119 78 49 44 42 50 80 346 286 331 342 302 307 228 240 228 227 203 229 243 256 282 289 287 255 230 220 215 219 220 213 216 229 251 277 289 292 294
160 153 105 129 129 118 81 73 48 93 80 137 191 228 308 341 299 276 299 300 275 258 242 203 233 264 2 342 326 284 258 233 226 224 232 233 223 225 243 265 281 290 293 297
156 136 117 129 130 97 86 56 55 82 187 181 190 251 274 299 286 271 275 272 269 254 269 229 262 3 347 329 314 304 290 281 271 252 248 248 249 255 253 263 285 298 318 329
132 111 111 155 116 59 135 180 280 278 185 181 179 328 314 314 282 279 272 257 239 302 234 212 74 354 351 337 303 297 297 292 282 279 259 249 225 132 108 73 5 340 333 334
124 140 117 144 150 230 184 175 161 136 139 148 94 250 256 288 355 259 252 263 266 267 270 246 13 345 340 335 313 277 286 282 247 181 153 134 104 73 56 20 358 354 350 350
126 146 154 165 119 112 132 117 122 130 142 144 112 339 255 294 258 229 282 255 267 27 19 300 323 336 338 336 325 285 268 260 231 216 183 153 117 85 10 352 354 354 355 354
115 106 104 117 106 159 151 148 137 148 147 111 101 145 344 260 207 265 226 303 234 238 224 307 329 335 339 333 324 296 261 245 214 225 214 210 16 7 352 343 353 359 0 360
97 91 117 129 118 166 167 158 146 138 121 123 141 181 211 2 305 263 197 201 210 252 292 312 322 328 333 331 322 298 263 240 212 199 203 330 330 330 329 328 344 353 353 354
Wind_Speed_850mb
30 35 36 38 41 42 18 0 5 26 12 7 6 3 8 15 14 17 6 5 12 10 7 6 7 8 9 25 22 14 10 5 7 5 10 10 4 10 8 5 6 3 2 3
28 31 31 33 36 39 17 2 4 17 12 6 5 8 5 5 10 11 12 8 18 18 9 8 5 7 6 28 19 15 12 3 5 4 6 6 7 8 7 6 5 2 4 3
24 24 26 29 31 34 12 3 4 9 16 9 5 8 8 11 17 3 11 6 11 13 5 4 10 13 6 13 14 13 20 2 6 9 7 9 8 12 6 7 4 3 5 6
15 20 23 26 27 26 8 8 3 4 5 7 6 5 9 9 13 10 16 2 21 14 5 11 14 9 9 4 5 5 6 8 7 15 15 11 15 29 22 10 7 8 6 10
11 16 22 27 27 18 18 5 6 7 3 6 4 10 9 8 9 5 8 14 29 20 7 4 10 12 4 6 8 6 1 7 8 6 9 15 7 24 28 27 10 4 2 4
3 16 21 26 25 26 15 8 9 6 6 3 4 2 6 7 12 10 13 15 16 16 7 32 47 34 28 6 11 16 10 6 2 3 4 8 3 21 29 16 10 11 12 10
8 18 18 23 25 31 25 16 9 6 1 2 2 2 4 6 8 6 19 23 9 12 53 43 4 8 17 14 12 22 9 6 3 2 3 3 4 5 20 25 16 10 6 6
17 18 16 20 22 26 27 27 10 5 4 3 3 4 5 18 17 6 10 7 24 34 28 9 7 4 4 4 4 9 11 3 3 3 3 9 3 3 7 15 10 14 13 9
20 17 15 18 19 21 21 24 21 6 10 5 1 2 5 5 7 10 8 26 18 23 2 5 5 3 2 7 14 2 3 5 6 3 2 2 2 7 7 9 3 2 19 16
23 19 15 16 17 18 18 18 21 9 5 4 5 5 2 5 6 2 10 27 21 29 7 6 6 4 2 4 6 7 7 6 5 1 1 5 5 10 2 3 7 8 16 23
23 20 16 15 15 15 13 15 21 17 4 6 0 3 2 3 5 3 16 6 9 12 10 7 5 4 5 4 3 1 2 2 1 1 3 3 10 6 4 5 8 4 14 20
22 20 15 15 14 12 13 12 14 13 6 8 7 10 6 1 3 5 9 1 5 10 5 5 6 3 4 3 4 5 1 5 3 6 6 5 8 3 6 5 9 11 18 16
21 19 11 11 10 9 13 12 15 14 10 11 8 8 10 8 11 15 3 1 3 5 10 6 5 6 2 3 5 5 4 5 2 5 3 6 6 8 9 13 16 17 15 13
25 21 10 6 6 5 11 13 21 15 9 7 2 11 13 14 12 11 5 19 14 10 15 5 5 5 5 4 5 4 7 2 3 6 7 6 3 4 9 12 13 14 13 12
28 22 12 3 4 9 16 15 17 17 4 6 3 6 3 7 16 16 10 14 17 8 4 3 4 10 4 3 1 6 8 7 5 6 5 4 2 7 8 9 11 11 9 10
31 22 12 4 3 13 15 6 5 14 10 4 3 1 3 17 12 11 6 10 11 6 4 9 11 9 5 4 5 9 8 8 11 4 4 5 10 11 10 8 8 7 6 7
33 23 11 10 9 14 9 7 5 10 9 5 4 7 5 20 8 8 6 6 6 9 7 8 9 8 4 5 8 9 4 6 3 5 8 7 12 7 9 8 7 7 6 4
33 24 15 22 23 15 13 10 3 5 8 7 5 6 6 21 9 7 1 6 7 10 9 8 8 6 5 8 12 12 8 4 4 5 4 4 7 10 9 7 6 5 3 4
33 24 31 30 8 6 10 16 12 15 11 8 6 4 6 19 10 8 7 8 5 9 8 9 5 4 9 9 13 5 4 6 5 6 5 6 6 6 7 7 6 7 7 9
34 39 11 10 10 19 19 8 5 7 10 9 6 1 5 12 12 7 7 8 4 4 10 5 6 6 26 17 13 8 5 5 6 6 5 6 8 9 8 7 8 11 13 15
39 15 10 29 29 9 8 6 4 2 5 3 3 5 6 3 3 5 5 6 4 4 5 5 4 3 9 11 6 4 4 3 4 5 7 7 7 9 9 10 11 12 14 15
24 23 36 24 8 7 11 2 1 4 6 6 4 4 7 7 5 6 6 6 5 9 3 3 3 4 25 13 9 7 6 6 7 7 8 9 8 9 9 8 8 8 7 9
39 11 12 10 3 10 9 8 6 3 11 9 3 5 4 4 4 9 5 6 9 5 5 3 2 20 42 29 17 13 12 13 16 13 8 5 2 3 4 3 4 6 8 11
8 13 7 4 3 6 7 8 9 11 16 11 1 2 2 2 2 5 5 7 7 5 2 2 7 37 50 38 25 19 18 14 6 4 4 3 3 4 5 5 7 8 9 11
9 10 8 5 9 9 20 22 18 14 12 8 5 1 3 4 4 5 6 6 5 5 6 4 35 47 50 44 35 25 22 19 9 5 3 2 2 2 3 6 8 9 10 11
7 7 11 14 13 8 13 15 12 18 12 8 8 2 0 6 4 3 10 5 4 5 5 23 34 43 49 43 34 23 22 22 14 8 5 2 1 4 7 8 8 9 10 11
7 6 15 19 13 22 19 20 22 17 9 5 5 6 12 3 4 6 6 8 6 12 25 33 35 37 45 40 28 20 21 23 23 17 8 2 7 7 7 7 9 11 12 12
Wind_Direction_850mb
338 343 346 350 347 350 1 346 49 3 358 47 20 37 328 329 321 351 319 242 335 339 334 211 234 241 219 179 148 161 198 137 137 167 236 219 211 174 157 135 177 71 203 342
336 345 352 354 350 353 359 58 78 25 29 74 0 351 307 326 349 343 358 323 3 335 335 330 312 6 347 178 152 151 176 254 100 88 317 125 204 184 154 95 79 204 95 185
338 353 6 2 357 357 11 27 41 40 61 56 51 345 351 326 350 154 346 288 358 340 315 332 342 19 88 179 165 170 179 161 216 180 198 155 184 159 149 114 115 180 230 287
356 13 22 12 9 9 19 45 87 73 336 5 4 341 355 322 351 356 330 53 11 346 305 341 0 2 109 92 321 23 165 230 196 274 285 232 184 167 168 154 203 162 230 198
3 36 34 30 27 28 42 65 121 113 71 324 347 356 12 335 336 303 336 356 341 335 313 28 312 355 318 147 145 157 206 289 163 272 250 169 177 193 184 196 195 252 262 302
15 63 49 44 41 46 48 72 107 143 3 10 94 271 286 307 331 258 261 332 326 319 356 310 287 268 257 258 155 173 184 242 160 292 356 106 256 192 189 191 178 165 191 219
138 81 61 51 44 51 48 57 100 123 176 124 160 251 288 279 311 247 303 311 302 326 313 314 307 197 237 221 218 194 175 209 196 122 4 214 235 294 188 193 196 193 233 209
128 102 79 61 45 53 45 46 54 109 149 187 213 285 281 307 317 299 289 309 310 314 319 352 11 22 68 5 123 185 216 150 88 126 274 306 69 99 138 181 244 204 195 188
130 115 95 73 54 52 48 47 40 68 134 231 40 342 334 344 318 343 298 334 352 357 298 354 49 61 297 328 349 4 102 83 120 143 141 328 309 319 274 181 308 292 199 189
140 130 111 82 62 51 46 40 40 48 76 106 61 54 342 356 348 275 305 335 346 9 358 57 29 339 288 40 5 328 343 358 92 59 141 310 296 299 291 172 232 324 185 185
146 140 120 93 70 50 45 28 30 38 79 96 97 323 299 357 38 46 320 344 9 350 20 360 12 343 323 328 275 284 218 35 318 191 68 70 355 324 73 271 352 50 121 137
148 145 133 103 89 63 49 48 32 42 79 91 55 60 54 201 172 327 351 62 285 11 337 5 304 315 348 290 329 345 43 177 233 174 225 268 311 292 352 31 87 89 117 128
155 152 139 104 95 81 58 41 54 84 101 99 62 36 332 292 303 315 275 346 64 15 5 310 290 280 129 318 280 303 282 173 202 12 309 299 353 32 56 79 94 92 97 108
161 154 138 109 99 110 48 77 61 61 108 102 114 33 51 40 15 356 289 245 284 309 325 275 277 277 219 244 263 211 235 5 209 267 294 306 287 92 83 80 79 84 91 93
163 155 143 123 63 105 103 112 61 46 83 150 150 95 46 8 342 331 272 249 256 293 311 260 260 304 292 249 44 258 192 201 157 223 263 177 252 150 131 123 100 90 90 86
162 155 147 143 76 103 129 118 28 17 56 105 87 65 37 3 10 357 332 228 227 233 258 255 267 267 280 265 271 261 238 255 256 274 322 205 148 146 143 133 107 93 77 71
160 152 159 158 125 104 87 98 79 7 84 84 19 353 1 0 13 345 44 145 183 212 243 247 259 277 253 254 252 244 274 331 262 221 152 136 162 172 170 163 146 141 127 102
159 152 171 138 133 100 80 88 65 38 76 65 81 292 1 10 345 342 253 153 205 226 252 258 247 253 231 254 251 265 260 246 163 161 189 184 170 167 171 179 181 199 243 283
155 158 141 132 126 102 100 104 86 64 61 95 62 58 285 349 347 306 271 206 228 208 220 235 202 201 234 250 278 272 238 241 205 176 154 146 162 182 205 219 237 260 280 292
153 146 139 117 119 126 119 78 49 44 42 50 80 346 286 331 342 302 307 228 240 228 227 203 229 243 256 282 289 287 255 230 220 215 219 220 213 216 229 251 277 289 292 294
160 153 105 129 129 118 81 73 48 93 80 137 191 228 308 341 299 276 299 300 275 258 242 203 233 264 2 342 326 284 258 233 226 224 232 233 223 225 243 265 281 290 293 297
156 136 117 129 130 97 86 56 55 82 187 181 190 251 274 299 286 271 275 272 269 254 269 229 262 3 347 329 314 304 290 281 271 252 248 248 249 255 253 263 285 298 318 329
132 111 111 155 116 59 135 180 280 278 185 181 179 328 314 314 282 279 272 257 239 302 234 212 74 354 351 337 303 297 297 292 282 279 259 249 225 132 108 73 5 340 333 334
124 140 117 144 150 230 184 175 161 136 139 148 94 250 256 288 355 259 252 263 266 267 270 246 13 345 340 335 313 277 286 282 247 181 153 134 104 73 56 20 358 354 350 350
126 146 154 165 119 112 132 117 122 130 142 144 112 339 255 294 258 229 282 255 267 27 19 300 323 336 338 336 325 285 268 260 231 216 183 153 117 85 10 352 354 354 355 354
115 106 104 117 106 159 151 148 137 148 147 111 101 145 344 260 207 265 226 303 234 238 224 307 329 335 339 333 324 296 261 245 214 225 214 210 16 7 352 343 353 359 0 360
97 91 117 129 118 166 167 158 146 138 121 123 141 181 211 2 305 263 197 201 210 252 292 312 322 328 333 331 322 298 263 240 212 199 203 330 330 330 329 328 344 353 353 354